Lapse_Rate
1.1 1.2 1.9 5.3 6.5 6.5 6.5 6.5 6.5 6.5 6.5 7.3 7.5 7.0 6.6 7.2 6.5 6.5 7.6 8.0 7.2 6.3 6.4 5.6 4.6 4.3 4.5 4.1 3.9 4.0 4.4 4.5 4.5 4.4 4.3 4.3 4.2 4.1 4.1 4.2 4.2 4.5 4.6 4.8 4.7 4.5 4.2 3.8 3.5
1.8 2.7 4.8 5.6 6.5 6.5 6.5 6.5 6.5 6.5 7.1 7.7 7.2 7.4 7.0 6.5 7.1 7.7 8.1 7.7 6.6 6.5 6.3 6.0 4.5 4.3 4.4 4.2 4.3 4.3 4.5 4.7 4.7 4.8 4.8 4.7 4.6 4.6 4.3 4.2 4.2 4.4 4.6 4.6 4.5 4.3 4.0 3.9 4.1
2.7 3.9 7.2 6.5 6.5 6.5 6.5 6.5 6.5 6.9 7.5 7.3 7.1 7.8 7.5 6.9 7.4 8.1 8.0 6.6 6.1 6.8 6.0 5.7 4.7 4.7 4.5 4.4 4.4 4.4 4.3 4.6 4.7 4.8 4.9 4.8 4.7 4.7 4.5 4.4 4.5 4.6 4.9 4.8 4.5 4.0 3.5 3.4 3.8
5.5 6.2 7.0 6.5 6.5 6.5 6.5 6.5 6.9 6.8 7.3 7.6 7.6 6.6 6.7 6.6 6.4 7.6 7.0 6.9 6.8 5.8 5.8 5.0 4.9 4.9 4.6 4.6 4.5 4.4 4.5 4.6 4.7 4.7 4.6 4.5 4.5 4.5 4.3 4.4 4.5 4.7 4.9 5.1 4.8 4.3 3.9 3.9 4.0
4.5 5.8 6.5 6.5 6.5 6.5 6.5 7.0 7.1 6.5 6.9 7.2 7.5 6.7 7.0 6.7 6.9 7.7 6.5 8.0 5.5 5.7 5.7 5.8 5.6 4.9 4.7 4.9 4.8 4.5 4.4 4.6 4.7 4.6 4.5 4.4 4.2 4.1 4.0 4.1 4.2 4.2 4.3 4.4 4.3 4.2 4.2 4.2 4.2
7.0 7.0 6.5 6.5 6.5 6.5 6.6 7.2 7.1 6.9 7.2 7.3 7.2 7.1 6.5 6.5 6.9 6.6 6.5 6.1 4.5 4.8 5.1 5.4 5.1 5.0 4.9 4.9 4.6 4.4 4.3 4.2 4.2 4.3 4.3 4.2 4.2 4.1 4.1 4.0 4.0 4.0 3.9 3.9 4.0 4.1 4.1 4.0 4.0
6.7 6.5 6.5 6.5 6.5 6.5 6.5 7.4 6.9 6.9 7.0 6.9 7.8 6.5 6.5 6.0 5.3 5.4 4.9 4.4 3.5 3.8 3.7 4.2 4.9 4.9 4.5 4.6 4.5 4.3 4.1 3.8 3.7 3.7 3.8 4.0 4.0 4.1 4.4 4.4 4.5 4.5 4.4 4.2 4.1 4.0 3.9 3.9 3.7
6.0 6.4 6.5 6.5 6.5 6.5 6.7 7.1 7.1 7.1 6.8 7.1 8.0 6.6 6.8 5.8 4.8 4.6 4.0 3.9 3.8 3.8 4.0 4.5 5.0 5.4 5.2 5.4 3.9 2.9 2.4 2.3 2.1 2.4 2.8 3.1 3.8 3.8 4.2 4.3 4.5 4.5 4.3 4.1 4.1 4.0 3.7 3.7 3.8
4.7 6.5 6.5 6.5 6.5 6.5 7.2 6.6 7.1 7.3 7.4 7.7 7.9 7.9 5.8 4.9 5.0 4.4 4.2 4.4 4.7 4.2 4.1 4.2 5.2 5.1 5.1 4.8 3.3 2.7 2.0 1.6 1.5 2.1 1.9 3.8 3.7 4.1 4.9 2.9 3.4 3.6 3.8 3.7 3.7 3.8 3.8 3.9 4.1
6.7 6.5 6.5 6.5 6.6 6.5 6.9 7.0 7.2 7.0 7.1 7.1 7.3 6.7 4.7 4.2 5.8 4.8 4.6 4.8 4.8 4.3 4.6 4.5 4.8 4.3 4.5 3.7 2.8 2.6 2.9 2.2 1.6 2.4 3.2 4.2 3.7 3.3 3.8 2.9 2.3 2.8 3.0 3.1 3.3 3.3 4.0 5.3 6.5
6.8 6.5 6.5 6.7 7.1 7.3 7.0 7.0 7.4 7.0 6.5 7.2 7.0 7.2 7.7 6.9 6.7 4.7 5.5 5.0 4.1 3.7 4.1 4.0 3.8 3.4 3.4 3.5 2.8 2.1 3.2 3.1 2.1 2.2 3.1 3.5 3.8 3.7 3.9 4.2 4.2 3.8 2.7 4.7 4.9 5.3 5.6 5.3 5.9
6.5 6.8 6.9 7.0 7.2 7.1 6.7 7.4 7.0 7.1 7.0 8.0 6.9 7.0 6.9 6.0 5.2 5.2 5.0 5.3 4.5 4.5 4.5 4.0 3.3 3.0 2.7 3.3 3.5 3.2 2.9 1.8 2.5 2.1 2.3 3.2 4.3 3.8 3.1 1.5 1.2 1.5 1.7 2.0 2.0 2.6 2.6 3.6 3.4
6.5 6.6 7.0 7.1 7.1 7.2 7.3 6.9 6.8 7.0 7.4 7.8 6.8 7.0 6.0 4.7 4.4 4.6 4.6 5.2 5.2 4.6 3.9 3.7 3.4 2.7 2.8 2.5 2.3 2.1 1.7 1.6 1.7 1.7 1.3 1.4 1.7 2.0 2.4 2.3 1.3 1.3 0.6 1.1 1.7 1.9 2.2 2.8 3.0
6.9 6.9 6.9 7.1 7.1 7.1 6.7 6.8 7.1 7.3 7.4 7.0 6.7 6.0 5.6 5.4 5.3 4.7 4.2 3.9 4.0 3.8 4.0 3.6 3.8 2.6 2.1 1.8 1.2 1.2 0.6 0.5 0.6 1.0 1.3 1.7 2.3 2.2 2.0 1.9 2.2 2.6 2.4 2.5 2.9 3.3 3.5 3.6 4.4
7.1 6.5 6.5 6.7 6.9 6.6 7.3 6.5 6.5 7.6 7.8 7.5 7.2 6.9 6.1 5.3 5.5 5.2 4.7 4.8 4.5 3.7 3.7 4.0 3.8 2.9 2.7 2.0 1.6 1.5 1.7 1.8 1.6 1.1 0.3 0.4 1.1 1.4 2.2 2.6 2.6 2.2 1.9 2.6 3.0 3.2 3.2 4.2 4.9
6.5 6.5 6.5 6.5 6.6 6.8 6.8 6.5 6.6 7.7 7.4 7.2 7.6 7.7 6.5 6.0 5.2 4.6 4.1 3.8 4.0 3.8 3.5 3.9 3.1 2.4 2.8 2.0 1.9 1.6 1.1 1.3 1.5 1.5 1.3 0.8 0.8 0.8 1.4 2.1 1.9 1.3 2.0 2.5 2.8 2.9 3.7 4.2 5.1
6.5 6.5 6.5 6.5 6.7 6.5 6.5 6.5 6.8 7.7 7.3 7.2 7.4 7.6 7.8 7.0 5.3 4.6 4.9 4.0 2.1 2.6 4.0 3.1 2.6 2.9 2.6 1.8 1.7 1.5 1.3 1.7 1.7 1.8 1.7 1.1 1.1 1.1 1.9 1.5 0.9 1.3 2.0 2.1 2.5 2.4 2.2 4.3 5.3
6.5 6.5 6.5 6.5 6.5 6.5 6.5 6.5 6.5 7.4 7.2 7.1 7.4 7.7 7.8 7.8 6.7 5.0 4.7 4.9 4.3 2.5 4.2 3.6 4.1 2.0 2.2 2.3 2.1 2.4 2.3 1.9 1.9 1.9 1.7 1.9 1.7 1.5 2.0 1.4 0.8 1.5 2.1 2.0 2.0 1.3 1.3 2.7 5.6
6.5 6.5 6.5 6.5 6.5 6.5 6.5 6.5 6.5 7.1 7.3 7.2 7.4 7.6 7.7 7.8 7.0 6.5 4.7 4.5 4.8 4.6 5.1 3.9 3.2 2.5 3.6 3.9 3.6 3.7 2.8 2.9 2.4 2.1 1.7 1.7 1.6 1.3 1.6 1.5 0.9 1.0 1.1 0.5 1.0 1.3 1.3 2.4 3.5
6.5 6.5 6.5 6.5 6.5 6.5 6.5 6.5 6.5 6.8 6.9 7.3 7.4 7.6 7.6 7.8 6.7 6.2 6.0 5.7 5.7 5.0 4.7 4.6 4.4 4.7 4.8 4.6 3.9 3.6 2.8 2.4 2.5 2.1 1.7 1.8 1.3 1.2 0.6 0.6 0.6 0.3 1.3 0.7 0.5 0.8 1.5 1.8 1.9
6.5 6.5 6.5 6.5 6.5 6.5 6.5 6.5 6.5 6.6 7.1 7.4 7.6 7.7 7.8 7.6 6.6 6.3 5.8 5.5 5.6 5.3 5.1 5.3 5.2 4.6 4.7 3.8 3.4 2.4 2.4 2.9 3.1 3.3 2.9 1.4 1.1 0.7 0.3 0.1 0.2 0.2 0.6 0.8 0.7 0.9 1.1 2.5 2.1
6.5 6.5 6.5 6.5 6.5 6.5 6.5 6.5 6.5 6.5 6.5 6.8 7.3 7.4 7.7 7.8 7.3 6.3 6.2 5.3 5.6 5.6 5.4 5.5 5.4 4.5 4.8 4.3 4.1 4.2 4.2 3.3 2.5 2.8 2.5 1.8 0.9 0.6 0.3 -0.1 -0.0 0.1 0.5 0.9 1.1 0.8 1.3 2.5 2.6
6.5 6.5 6.5 6.5 6.5 6.5 6.5 6.5 6.5 6.5 6.5 6.5 7.0 7.4 7.6 7.8 6.3 5.9 5.9 5.6 5.6 4.8 5.2 5.3 5.3 5.2 4.3 4.8 4.2 3.3 3.0 2.3 2.0 2.2 2.5 1.9 0.9 0.6 0.8 0.4 0.4 0.4 0.5 0.0 0.5 1.1 1.1 1.8 2.3
6.5 6.5 6.5 6.5 6.5 6.5 6.5 6.5 6.5 6.5 6.5 6.5 6.9 7.4 7.6 7.6 6.5 6.2 5.6 5.3 5.0 4.7 4.6 5.0 5.3 4.9 4.6 4.5 3.9 3.7 2.7 1.9 2.0 2.4 2.4 2.2 2.2 1.7 1.1 1.1 0.8 0.4 0.5 0.5 0.8 1.0 1.3 1.9 2.0
6.5 6.5 6.5 6.5 6.5 6.5 6.5 6.5 6.5 6.5 6.5 6.5 6.6 7.2 7.6 7.5 6.9 5.8 5.4 5.4 4.6 4.5 4.2 4.8 5.4 4.8 4.5 4.6 4.4 3.9 3.3 3.0 3.0 2.8 3.1 3.0 2.7 2.6 2.0 1.8 1.4 1.1 0.6 0.6 1.1 1.2 1.2 1.8 2.1
6.5 6.5 6.5 6.5 6.5 6.5 6.5 6.5 6.5 6.5 6.8 7.0 7.2 7.4 7.6 7.3 6.0 5.9 5.8 5.2 4.7 4.5 4.5 4.9 5.4 4.7 4.2 4.4 4.2 4.0 3.8 3.7 3.4 3.2 3.0 2.8 3.1 2.9 1.7 1.6 1.7 1.4 1.3 1.0 1.1 1.3 1.4 1.5 2.2
6.5 6.5 6.5 6.5 6.5 6.5 6.5 6.5 6.5 6.5 6.5 6.8 7.0 7.1 7.3 7.4 6.3 5.6 5.6 4.6 4.4 4.3 4.0 4.8 5.5 5.5 4.9 4.9 4.5 4.0 3.8 3.5 3.2 2.6 2.7 3.2 2.6 2.0 1.8 2.2 2.0 1.5 1.2 1.1 1.2 1.4 1.6 1.7 2.0
6.5 6.5 6.5 6.5 6.5 6.5 6.5 6.5 6.5 6.5 6.5 6.5 6.6 7.0 7.2 7.6 7.6 6.9 5.5 4.4 4.6 4.3 4.2 4.6 5.5 5.5 5.0 4.9 4.6 4.1 3.9 3.3 3.1 2.9 3.0 3.0 2.5 2.4 2.6 2.3 1.8 1.5 1.3 1.2 1.4 1.6 1.0 1.7 1.7
6.5 6.5 6.5 6.5 6.5 6.5 6.5 6.5 6.5 6.5 6.5 6.5 6.6 7.1 7.3 7.4 7.6 7.0 5.6 4.6 4.4 4.5 4.5 4.6 5.1 5.4 5.0 4.9 4.2 3.7 3.5 3.0 3.0 3.0 2.9 2.8 2.5 2.8 2.9 2.3 2.0 1.8 1.6 1.4 1.5 1.5 1.1 1.6 1.9
6.5 6.5 6.5 6.5 6.5 6.5 6.5 6.5 6.5 6.5 6.5 6.8 6.9 7.2 7.5 7.7 7.9 7.9 5.8 4.8 4.7 4.5 4.9 4.7 5.0 5.0 4.6 4.4 3.9 3.8 3.2 3.0 3.0 3.0 3.0 2.7 3.3 2.9 2.8 2.5 2.3 2.0 1.7 1.4 1.5 1.3 1.3 1.5 1.3
Wind_Speed
6 2 2 1 2 0 3 3 2 4 5 2 5 1 11 10 3 3 4 6 12 9 12 11 11 10 9 12 13 15 13 13 12 12 12 11 11 10 10 11 11 10 12 12 12 12 12 12 11
2 3 0 2 2 3 3 1 5 3 9 13 11 8 8 5 5 8 5 6 11 10 10 9 9 10 9 12 12 14 13 11 11 11 11 11 10 10 10 10 10 10 10 10 11 12 11 10 8
4 1 2 2 3 3 4 2 7 8 6 5 6 7 5 3 3 4 7 8 10 11 8 8 8 9 9 11 12 13 14 12 11 11 10 10 10 10 9 9 9 9 8 8 9 9 9 8 7
2 2 3 1 3 2 2 10 14 15 9 7 14 10 6 3 3 6 7 10 10 9 7 7 9 8 8 10 12 13 13 12 11 10 9 8 8 8 9 9 9 9 9 8 7 7 6 5 4
3 1 3 2 1 2 6 10 6 7 6 12 7 7 5 3 5 10 10 10 12 8 8 7 9 9 8 9 10 12 12 11 10 9 8 8 8 8 9 9 9 8 8 8 7 6 6 6 6
2 0 3 5 4 4 5 4 9 12 16 16 13 11 5 5 7 6 10 10 11 8 8 9 9 8 8 9 10 10 11 11 10 9 8 7 8 8 8 8 8 8 7 7 6 5 3 3 3
4 3 4 6 9 7 6 2 10 16 13 6 16 9 6 10 8 8 12 10 11 9 9 8 8 8 10 9 10 11 11 11 10 9 8 8 8 7 6 6 6 6 6 6 6 5 5 5 5
3 3 7 5 11 7 8 6 3 5 3 6 4 8 9 10 13 11 11 13 10 9 9 7 6 6 9 9 12 16 14 12 12 12 10 9 9 9 7 6 5 5 5 6 6 7 7 6 6
2 3 6 10 12 7 10 7 3 2 8 2 2 10 15 18 16 13 10 11 11 9 7 7 6 7 9 10 11 11 12 12 12 10 12 10 9 10 10 14 12 9 8 8 7 6 6 6 4
2 4 11 6 9 9 13 11 11 7 6 2 8 15 21 20 14 16 12 9 8 9 7 5 8 9 9 9 10 9 9 11 10 9 8 8 8 10 9 11 12 13 10 10 9 9 7 6 6
3 3 5 6 6 15 14 9 4 14 7 5 14 16 16 14 14 12 7 10 10 6 7 5 8 9 9 8 8 7 6 8 9 11 9 8 7 7 8 6 7 8 10 7 6 6 6 7 7
3 1 4 6 7 10 14 11 8 10 1 11 15 16 15 14 13 13 10 9 10 9 8 6 9 10 11 9 9 9 9 9 9 10 10 8 7 8 8 8 8 8 8 8 8 7 7 8 9
2 3 4 8 11 10 10 7 6 4 7 19 16 15 14 13 14 11 10 9 8 10 8 7 9 9 12 12 10 11 10 10 9 10 12 9 8 7 8 8 8 8 8 7 6 7 8 8 8
4 7 7 7 12 6 11 5 3 2 13 17 17 16 14 13 9 11 9 8 7 8 9 9 9 11 13 12 12 10 11 10 11 11 11 11 9 8 8 8 8 9 9 8 7 8 7 7 7
7 8 8 6 3 6 14 5 2 9 10 15 15 14 14 12 9 8 8 7 6 6 9 10 10 13 13 13 12 11 11 11 11 11 13 13 12 11 10 8 8 9 8 8 9 8 7 6 8
6 5 9 2 1 4 6 10 7 10 13 13 14 12 15 12 12 9 8 7 6 5 8 9 10 13 12 13 13 12 12 13 12 11 13 14 14 13 11 9 9 9 9 9 9 7 5 6 7
3 8 5 7 1 4 3 5 12 11 11 12 12 11 11 10 12 11 8 7 6 5 8 10 10 11 12 14 14 15 13 12 12 12 13 14 14 13 12 11 10 8 10 11 8 7 5 6 8
7 7 3 9 8 4 5 6 14 13 14 13 12 12 11 9 7 10 9 7 9 6 4 10 8 12 12 12 12 12 12 12 13 13 13 12 13 13 12 13 13 12 9 7 7 9 7 6 5
11 12 14 4 6 8 8 7 16 14 14 15 13 12 11 10 7 6 10 7 9 8 12 12 12 9 7 6 6 6 7 7 10 12 13 13 14 14 13 13 13 13 8 9 8 8 11 8 4
13 13 9 4 8 6 4 4 12 13 14 16 16 14 14 12 12 10 9 9 9 11 10 10 12 10 7 5 6 4 6 7 9 11 14 14 15 14 15 14 13 13 8 11 11 9 5 8 8
9 15 12 9 8 3 10 2 9 12 9 13 15 15 16 18 17 14 12 12 11 12 12 11 12 10 8 10 10 10 11 7 6 6 7 13 15 15 17 16 14 13 12 8 10 11 9 6 9
11 13 16 17 16 7 9 8 9 17 17 14 17 17 17 17 14 14 14 13 12 10 11 12 11 8 9 13 10 10 7 7 4 6 8 12 15 15 16 16 15 13 12 9 9 12 9 8 7
9 16 17 17 16 7 8 5 4 11 15 21 22 21 19 17 17 17 15 14 12 11 11 12 12 12 10 8 10 8 10 8 6 6 8 9 13 15 15 15 13 12 11 12 12 9 10 8 8
17 14 9 6 4 7 12 11 6 9 24 23 23 21 21 20 18 16 13 13 11 10 10 11 12 11 9 8 9 11 13 11 8 7 6 6 6 10 13 13 13 12 11 12 10 10 10 8 8
12 18 5 5 6 5 3 9 10 13 13 23 24 24 23 20 19 18 18 15 13 12 12 11 12 11 10 9 9 10 11 11 10 8 6 6 5 5 7 11 12 11 12 11 10 9 9 8 8
14 16 7 10 6 6 4 7 6 10 15 18 14 17 19 22 20 19 19 17 16 14 13 13 13 12 11 10 9 8 9 7 7 7 6 5 5 5 9 10 10 10 11 11 9 9 8 9 7
11 11 10 7 2 4 5 4 7 11 9 11 15 18 21 23 23 23 21 18 17 15 15 14 13 12 12 12 9 9 8 9 8 9 8 5 7 8 8 8 9 10 11 11 10 8 7 8 7
14 13 9 3 9 7 5 5 9 6 14 9 15 19 19 20 21 21 20 19 16 15 13 13 13 14 13 12 10 9 9 9 8 8 8 7 8 8 8 8 8 9 10 11 10 8 9 7 6
7 12 2 6 3 9 5 5 8 14 10 16 17 18 20 22 22 21 19 18 17 16 15 14 14 14 12 12 11 10 9 9 8 7 7 8 8 8 7 7 8 8 8 9 9 7 7 7 7
13 12 15 9 7 2 3 5 1 5 6 11 13 14 16 18 19 19 19 19 18 17 16 16 14 14 13 12 11 10 9 9 8 8 7 9 8 7 7 7 7 6 7 7 7 7 6 7 8
Wind_Direction
322 326 188 65 212 340 144 146 293 145 129 34 103 169 116 47 14 82 109 109 127 117 134 145 151 141 140 128 118 108 101 99 97 93 89 88 87 87 86 90 92 95 100 100 97 98 103 106 108
270 133 39 96 185 174 171 196 172 68 116 107 81 96 71 72 33 103 104 90 104 118 131 145 151 139 138 124 121 115 108 99 92 86 85 82 79 76 76 79 89 90 100 103 100 97 92 82 77
165 131 214 130 140 202 169 175 135 114 118 108 101 55 72 63 81 97 107 117 105 113 126 141 152 139 133 122 119 115 115 111 103 95 89 86 82 78 71 68 69 78 90 97 100 100 100 106 108
163 136 94 240 196 140 144 142 135 126 90 75 116 80 93 8 336 106 104 121 106 99 117 131 131 128 123 122 115 112 108 103 101 98 90 86 83 80 76 71 65 60 57 56 62 70 72 70 63
52 98 121 127 132 148 137 147 173 139 103 125 123 117 78 47 100 95 87 101 100 95 99 98 122 119 118 117 107 104 102 95 86 80 72 69 68 65 62 58 62 65 64 64 62 55 46 34 20
120 151 159 199 144 150 148 133 128 122 126 119 111 111 99 119 106 93 86 75 76 84 81 88 90 96 108 108 99 94 89 86 77 69 65 62 63 58 63 67 62 57 53 52 50 46 36 21 9
161 155 152 139 146 164 173 143 148 147 148 142 136 113 115 117 112 109 94 81 65 65 68 72 90 100 93 84 88 82 78 77 72 59 48 38 38 41 45 53 57 55 50 41 34 27 14 0 348
121 108 137 162 173 185 176 146 142 175 129 130 163 147 159 144 127 109 107 101 88 74 70 63 81 96 97 96 74 71 61 57 56 45 41 42 41 28 28 21 34 34 32 26 17 8 359 345 330
146 121 172 175 172 156 166 158 105 132 151 209 173 153 133 137 136 119 115 114 108 84 71 77 94 91 97 91 75 65 57 48 49 48 43 49 51 48 58 51 57 49 43 42 25 13 358 341 321
161 182 192 183 168 162 160 167 141 150 158 111 102 121 132 130 137 138 138 119 97 96 79 79 107 98 100 89 79 69 59 57 51 47 45 54 59 62 64 55 52 47 48 50 44 36 26 14 1
177 179 167 186 162 153 148 141 126 151 177 169 147 135 129 140 130 109 89 111 105 86 80 62 86 90 99 94 87 74 61 61 57 48 41 46 54 46 49 40 34 25 14 21 15 16 18 8 360
154 112 166 132 148 138 152 134 125 164 354 150 120 124 126 115 101 103 101 81 96 86 72 72 85 88 84 92 82 76 67 55 53 43 41 38 40 40 44 35 23 24 10 9 7 8 8 17 16
141 154 76 110 109 98 118 103 122 66 114 126 128 129 120 104 102 90 89 91 99 92 80 69 78 84 89 85 75 68 58 51 51 44 38 47 56 48 41 43 39 25 9 12 16 12 14 25 24
101 97 106 106 115 102 123 101 143 91 128 123 128 126 117 112 112 111 91 75 84 95 88 85 80 80 83 76 72 69 64 55 48 45 40 45 56 61 56 46 36 38 22 13 21 22 21 35 36
124 107 88 75 107 115 121 112 84 142 141 129 136 130 127 134 133 118 114 113 92 91 104 99 92 89 88 88 83 76 72 71 62 56 49 53 53 55 57 51 46 35 27 21 29 30 37 51 70
110 117 158 136 127 140 218 176 151 153 143 141 141 144 137 139 130 114 106 100 83 105 105 101 103 92 90 86 83 79 72 73 67 63 59 55 56 57 63 58 46 33 41 38 38 25 46 66 81
32 163 168 161 26 134 202 140 164 160 149 149 146 148 139 140 135 120 117 108 81 67 118 111 108 114 95 93 91 85 79 76 71 63 58 55 56 56 65 60 47 40 49 44 39 40 40 79 94
159 146 173 173 176 151 166 131 158 164 166 161 168 160 156 161 157 140 133 137 133 140 131 118 127 106 107 105 99 94 85 75 68 61 58 57 57 54 63 63 52 46 49 49 50 50 59 72 74
151 156 178 160 167 158 193 163 172 164 172 175 180 174 164 160 149 154 135 142 127 143 160 153 129 129 135 131 123 106 90 80 68 67 64 63 62 57 58 59 54 52 49 45 40 60 53 54 34
153 157 170 102 147 179 178 182 175 182 187 185 180 185 175 161 160 160 158 152 156 153 155 149 143 156 159 136 119 108 101 84 83 77 66 67 66 65 65 60 55 51 50 44 42 42 62 55 34
180 175 169 160 146 78 152 192 193 201 196 194 201 198 189 180 173 172 168 161 151 155 163 160 161 161 156 129 115 108 106 107 89 79 75 67 70 66 67 64 60 54 54 47 43 40 47 62 54
195 195 160 144 161 189 204 219 208 204 204 204 204 204 197 188 179 173 169 163 158 157 160 163 160 147 145 147 140 137 128 119 101 89 84 78 72 70 66 65 60 59 58 52 47 44 45 46 53
205 158 161 172 176 156 194 234 165 195 209 218 213 210 202 192 185 182 178 165 156 154 157 163 161 157 151 153 143 127 119 114 111 105 98 86 77 72 69 68 67 63 64 63 55 50 47 50 59
137 120 97 122 171 217 192 210 190 184 210 219 218 212 198 191 190 184 172 159 154 152 148 155 156 149 150 151 137 128 128 128 127 121 104 91 87 88 75 72 68 65 65 64 62 63 57 59 60
165 156 142 185 203 217 170 205 238 212 218 214 211 205 195 187 186 181 173 170 164 163 155 158 161 152 150 145 136 135 129 130 130 130 123 122 105 95 91 76 67 62 63 67 70 68 62 54 54
182 182 178 191 190 194 160 224 226 214 220 217 218 199 185 184 186 183 178 175 170 166 163 162 163 152 146 145 138 134 137 137 131 130 127 113 112 107 107 89 82 74 67 64 65 64 58 54 49
182 205 163 105 54 165 203 254 274 234 227 201 191 173 185 187 185 182 179 175 170 168 167 167 165 156 153 150 148 147 150 145 139 132 127 126 124 115 119 115 97 78 66 57 58 57 50 52 45
198 149 179 155 170 206 194 237 232 216 217 197 190 191 191 189 186 182 177 173 171 169 165 167 169 164 157 154 152 152 154 143 138 140 137 134 127 128 142 138 105 82 66 56 54 52 49 49 41
161 192 120 135 165 205 184 230 216 224 209 201 206 197 187 186 184 178 175 172 168 167 167 171 169 163 163 159 155 154 155 145 148 145 138 140 143 150 144 134 107 87 71 55 53 55 47 42 32
200 194 186 191 188 173 186 230 211 239 229 203 199 190 186 185 181 178 170 168 169 170 172 174 172 170 169 164 159 159 153 155 153 149 148 155 155 150 129 127 121 105 86 64 51 49 41 30 20